SL-14 DEB, 45273

Orbit data source: Space-Track

SL-14 DEB, 45273 is space debris in LEO originally from a launch on Thu, 15 Aug 1991 UTC launched from the Plesetsk Missile And Space Complex (PKMTR). Debris objects in space refer to the collection of defunct objects orbiting the Earth. Examples of debris include non-operational satellites, rocket bodies, and fragments generated from explosions, collisions, or faulty payload assembly.

Loading next visibility...
Identifier
45273, 1991-056K
Orbit
LEO
Country
Flag of CISCIS
Related business
Manufacturer
Unknown
Mission
Spacecraft
Bus & Motor
Unknown
Mass
Unknown
Launch date (UTC)
1991-08-15 (34 years ago)
Launch vehicle
Unknown
Launch site
Plesetsk Missile And Space Complex (PKMTR)
Object type
Payload
Rocket body
Debris
Shape & HBR
Unknown shape, 0.1 m
Radar Cross Section
Small (<0.1 m²)

Expand to show TLE details & history
Last TLE update: 1 day ago

TLE from 1 day ago
0 SL-14 DEB
1 45273U 91056K   25301.81983055  .00002682  00000-0  41902-2 0  9998
2 45273  82.5645 234.9463 0123104  24.1067 336.5767 13.47170266279760
Epoch: 2025-10-28T19:40Z
TLE epoch observation values (Epoch: 2025-10-28T19:40:33.359Z)
Latitude
0.00005°
Longitude
-97.59453°
Altitude
1,001.427 km
Speed
7.392 km/s
True Right ascension
15h 39m 47s
True Declination
0° 00' 00"
Sunlit
Object was in daylight at epoch
Visualization orbit readout
Latitude
Unknown
Longitude
Unknown
Altitude
Unknown
Speed
Unknown
Apparent Right ascension
Unknown
Apparent Declination
Unknown
Sunlit
N/A
Visualization observer readout
Local Sidereal Time
16:50:54
Azimuth
Unknown
Elevation
Unknown
Doppler factor
Unknown
Orbital elements
Apogee altitude
1,171.701 km
Perigee altitude
988.078 km
Semi-major axis
7,458.026 km
Eccentricity
0.01231
Inclination
82.5645°
RAAN
234.9463°
Arg. of periapsis
24.1067°
True anomaly
336.00791°
Mean anomaly
336.5767°
Eccentric anomaly
336.29311°
Mean motion
3.36982 °/min
Orbital period
106.83 mins
BSTAR
0.0041902
Loading maneuver chart data...
Computing Atmospheric mass density...
Loading historical data...
Loading historical data...
Loading historical data...
Loading historical data...
Loading historical data...
Loading historical data...
Loading historical data...

Documentation

Showing up to 5 results
|